Location: Shenandoah County Park
(38.9356°N, 78.4524°W)
Time: 10:06:15
(UTC-04:00)

A-11 Canister half - Pass Details

Date: 07 December 2023
Orbit: 1523 x 1684 km, 47.3° (Epoch: 09 September)

Event Time Altitude Azimuth Distance (km) Brightness Sun altitude
Rises 20:19:24 0° 265° (W) 4,932 12.5 -39.7°
Reaches altitude 10° 20:22:41 10° 269° (W) 3,947 11.8 -40.3°
Enters shadow 20:31:51 56° 330° (NNW) 1,933 9.4 -42.1°
